DW3733 Luzzi (cosenza) IT current weather conditions

sailwx.info

Wind from 180

Air temperature 7.2° C
Dewpoint 6.8° C

Last reported at 2015-Jan-25 23:13 UTC.
Time now 2015-Jan-26 02:23 UTC

Location: N 39°27' E 016°16'.
View on Google Maps.

See reports from other nearby stations

  
Tides and Currents Weather Stations Pressure Air Temp Water Temp Dewpoint Dewpoint Depression Visibility Wind Speed Wind Dir Waves Ship Positions
date/time (UTC)wind fromknots sea level pressurealtimeterstation pressurevisibilityair tempwater tempwave heightnotes
2015-Jan-25 23:13 180 7.2
2015-Jan-25 23:03 225 7.2
2015-Jan-25 22:53 319 7.2
2015-Jan-25 22:43 225 7.2
2015-Jan-25 22:33 270 7.2
2015-Jan-25 22:23 045 7.2
2015-Jan-25 22:13 7.2
2015-Jan-25 22:03 7.2
2015-Jan-25 21:53 043 7.2
2015-Jan-25 21:43 180 7.2
2015-Jan-25 21:33 113 0 gusting 0 7.2
2015-Jan-25 21:23 135 0 gusting 0 7.2
2015-Jan-25 21:13 225 7.2
2015-Jan-25 21:03 7.2
2015-Jan-25 20:53 298 7.2
2015-Jan-25 20:43 7.2
2015-Jan-25 20:33 090 0 gusting 2 7.2
2015-Jan-25 20:23 045 0 gusting 0 7.2
2015-Jan-25 20:13 049 7.2
2015-Jan-25 20:03 090 7.2
2015-Jan-25 19:53 055 7.2
2015-Jan-25 19:43 7.2
2015-Jan-25 19:33 015 7.2
2015-Jan-25 19:23 065 7.8
2015-Jan-25 19:03 045 7.8
2015-Jan-25 18:53 090 7.8
2015-Jan-25 18:43 135 0 gusting 2 7.8
2015-Jan-25 18:33 136 0 gusting 2 7.8
2015-Jan-25 18:23 116 0 gusting 2 7.8
2015-Jan-25 18:13 180 0 gusting 1 7.8
2015-Jan-25 18:03 303 0 gusting 4 7.8
2015-Jan-25 17:53 202 0 gusting 2 7.8
2015-Jan-25 17:43 162 0 gusting 2 7.8
2015-Jan-25 17:33 324 0 gusting 2 7.8
2015-Jan-25 17:23 268 7.8
2015-Jan-25 17:13 090 7.8
2015-Jan-25 17:03 315 0 gusting 1 7.8
2015-Jan-25 16:53 7.8
2015-Jan-25 16:43 045 0 gusting 1 8.3
2015-Jan-25 16:33 090 8.3
2015-Jan-25 16:23 090 8.3
2015-Jan-25 16:13 090 0 gusting 2 8.3
2015-Jan-25 16:03 180 8.3
2015-Jan-25 15:53 180 8.3
2015-Jan-25 15:43 180 8.3
2015-Jan-25 15:33 315 8.3
2015-Jan-25 15:23 8.3
2015-Jan-25 15:13 8.3
2015-Jan-25 15:03 8.3
2015-Jan-25 14:53 8.3
2015-Jan-25 14:43 8.3
2015-Jan-25 14:33 8.9
2015-Jan-25 14:23 8.9
2015-Jan-25 14:13 8.9
2015-Jan-25 14:03 328 8.9
2015-Jan-25 13:53 342 1 gusting 5 8.9
2015-Jan-25 13:43 082 0 gusting 5 8.9
2015-Jan-25 13:33 339 1 gusting 4 8.9
2015-Jan-25 13:23 344 0 gusting 2 8.9
2015-Jan-25 13:13 015 0 gusting 2 8.9
2015-Jan-25 13:03 8.9
2015-Jan-25 12:53 010 8.9
2015-Jan-25 12:43 298 8.9
2015-Jan-25 12:33 8.9
2015-Jan-25 12:23 225 0 gusting 1 8.9
2015-Jan-25 12:13 225 8.9
2015-Jan-25 12:03 144 0 gusting 1 8.3
2015-Jan-25 11:53 270 0 gusting 2 8.3
2015-Jan-25 11:43 225 0 gusting 2 8.3
2015-Jan-25 11:33 237 8.3
2015-Jan-25 11:23 270 7.8
2015-Jan-25 11:13 225 0 gusting 2 7.8
2015-Jan-25 11:03 180 0 gusting 2 7.8
2015-Jan-25 10:53 225 7.2
2015-Jan-25 10:43 192 0 gusting 2 7.2
2015-Jan-25 10:33 270 0 gusting 1 6.7
2015-Jan-25 10:23 180 0 gusting 1 6.7
2015-Jan-25 10:13 242 0 gusting 1 6.7
2015-Jan-25 10:03 180 6.7
2015-Jan-25 09:53 112 6.7
2015-Jan-25 09:43 6.7
2015-Jan-25 09:33 045 6.7
2015-Jan-25 09:23 202 6.1
2015-Jan-25 09:13 045 6.1
2015-Jan-25 09:03 6.1
2015-Jan-25 08:53 045 6.1
2015-Jan-25 08:43 5.6
2015-Jan-25 08:33 090 5.6
2015-Jan-25 08:23 090 0 gusting 2 5.6
2015-Jan-25 08:13 090 1 gusting 2 5.0
2015-Jan-25 08:03 315 0 gusting 0 5.6
2015-Jan-24 23:03 090 5.6
2015-Jan-24 22:53 090 0 gusting 0 6.1
2015-Jan-24 22:43 225 0 gusting 2 6.1
2015-Jan-24 22:33 225 0 gusting 2 5.6
2015-Jan-24 22:23 5.6
2015-Jan-24 22:13 090 1 gusting 2 5.0
2015-Jan-24 22:03 090 0 gusting 2 5.0
2015-Jan-24 21:53 090 1 gusting 2 5.0
2015-Jan-24 21:43 135 0 gusting 0 8.9
2015-Jan-24 21:33 135 0 gusting 0 8.9
2015-Jan-24 21:23 135 0 gusting 0 8.9
2015-Jan-24 21:13 135 0 gusting 0 8.9
2015-Jan-24 21:03 135 0 gusting 0 8.9
2015-Jan-24 20:53 135 0 gusting 0 8.9
2015-Jan-24 20:43 135 0 gusting 0 8.9
2015-Jan-24 20:33 135 0 gusting 0 8.9
2015-Jan-24 20:23 135 0 gusting 0 8.9
2015-Jan-24 20:13 135 0 gusting 0 8.9
2015-Jan-24 20:03 135 0 gusting 0 8.9
2015-Jan-24 19:53 135 0 gusting 0 8.9
2015-Jan-24 19:43 135 0 gusting 0 8.9
2015-Jan-24 19:33 135 0 gusting 0 8.9
2015-Jan-24 19:23 135 0 gusting 0 8.9
2015-Jan-24 19:13 135 0 gusting 0 8.9
2015-Jan-24 19:03 135 0 gusting 0 8.9
2015-Jan-24 18:53 135 0 gusting 0 8.9
2015-Jan-24 18:43 135 0 gusting 0 8.9
2015-Jan-24 18:33 135 0 gusting 0 8.9
2015-Jan-24 18:23 135 0 gusting 0 8.9
2015-Jan-24 18:13 135 0 gusting 0 8.9
2015-Jan-24 18:03 135 0 gusting 0 8.9
2015-Jan-24 17:53 135 0 gusting 0 8.9
2015-Jan-24 17:43 135 0 gusting 0 8.9
2015-Jan-24 17:33 135 0 gusting 0 8.9
2015-Jan-24 17:23 135 0 gusting 0 8.9
2015-Jan-24 17:13 135 0 gusting 0 8.9
2015-Jan-24 17:03 135 0 gusting 0 8.9
2015-Jan-24 16:53 135 8.9
2015-Jan-24 16:43 157 9.4
2015-Jan-24 16:33 135 10.0
2015-Jan-24 16:23 068 0 gusting 2 10.6
2015-Jan-24 16:13 070 1 gusting 2 11.1
2015-Jan-24 16:03 11.1
2015-Jan-24 15:53 11.7
2015-Jan-24 15:43 334 0 gusting 2 11.7
2015-Jan-24 15:33 11.7
2015-Jan-24 15:23 315 0 gusting 2 11.7
2015-Jan-24 15:13 317 0 gusting 2 12.2
2015-Jan-24 15:03 180 12.2
2015-Jan-24 14:53 318 1 gusting 4 12.2
2015-Jan-24 14:43 007 0 gusting 2 12.2
2015-Jan-24 14:33 341 0 gusting 2 12.2
2015-Jan-24 14:23 337 0 gusting 4 12.2
2015-Jan-24 14:13 12.8
2015-Jan-24 14:03 335 0 gusting 4 12.8
2015-Jan-24 13:53 338 1 gusting 2 13.3
2015-Jan-24 13:43 340 0 gusting 2 13.3
2015-Jan-24 13:33 334 1 gusting 2 13.3
2015-Jan-24 13:23 061 2 gusting 5 13.3
2015-Jan-24 13:13 054 2 gusting 6 13.3
2015-Jan-24 13:03 090 2 gusting 6 13.3
2015-Jan-24 12:53 028 3 gusting 6 13.9
2015-Jan-24 12:43 350 2 gusting 5 13.9
2015-Jan-24 12:33 13.3
2015-Jan-24 12:04 13.3
2015-Jan-24 11:54 004 0 gusting 5 13.3
2015-Jan-24 11:45 011 1 gusting 5 12.8
2015-Jan-24 11:34 346 1 gusting 5 12.8
2015-Jan-24 11:25 12.8
2015-Jan-24 10:45 061 0 gusting 2 12.2
2015-Jan-24 10:34 250 1 gusting 2 11.7
2015-Jan-24 10:25 217 0 gusting 1 11.1
2015-Jan-24 10:15 191 10.6
2015-Jan-24 09:54 261 9.4
2015-Jan-24 09:46 094 9.4
2015-Jan-24 09:13 8.3
2015-Jan-24 09:03 090 7.8
2015-Jan-24 08:53 041 0 gusting 1 7.2
2015-Jan-24 08:43 069 0 gusting 1 6.7
2015-Jan-24 08:33 045 6.1
2015-Jan-24 08:23 5.6
2015-Jan-24 08:13 341 0 gusting 1 5.0
2015-Jan-24 08:03 5.0
2015-Jan-24 07:53 208 4.4
2015-Jan-24 07:43 101 0 gusting 2 3.9
2015-Jan-24 07:33 045 0 gusting 2 3.3
2015-Jan-24 07:23 081 0 gusting 1 3.3
2015-Jan-24 07:13 334 0 gusting 2 3.3
2015-Jan-24 07:03 071 0 gusting 1 3.3
2015-Jan-24 06:53 063 2.8